Volver al catálogo

STARLINK-30436

ActivoComunicacionesVLEO
NORAD 57880·PAYLOAD·🇺🇸 United States

Lanzado Sep 16, 2023 desde Cape Canaveral Space Force Station

Loading…

Próximos Pases (próximas 24 horas)

TLE

ActualizadoSource: CelesTrak SupGP

Época: Sep 15, 2026, 02:43 UTC

1 57880C 23144S   26258.11368056  .00017224  00000+0  62388-3 0  2588
2 57880  43.0002 295.2187 0001398 257.1471 327.6327 15.27567724    18

Sigue STARLINK-30436 en tiempo real con AllMySat

Download on the App Store